Cullman, AL

10:40 AM CST on February 19, 2018 (GMT -0600)
Cullman

Weather History for K3A1 - November, 2012

Change the Weather History Date:

Tuesday, November 27, 2012

  Actual Average (KHSV) Record (KHSV)
Temperature  
Mean Temperature 47 °F -  
Max Temperature 57 °F 61 °F 80 °F (1990)
Min Temperature 36 °F 42 °F 17 °F (1930)
Degree Days  
Heating Degree Days 18    
Moisture  
Dew Point 42 °F    
Average Humidity 89    
Maximum Humidity 99    
Minimum Humidity 79    
Precipitation  
Precipitation 0.06 in - - ()
Sea Level Pressure  
Sea Level Pressure 30.22 in    
Wind  
Wind Speed 7 mph (North)    
Max Wind Speed 13 mph    
Max Gust Speed 20 mph    
Visibility 7 miles    
Events Rain    
Averages and records for this station are not official NWS values.
T = Trace of Precipitation, MM = Missing Value Source: NWS Daily Summary

Daily Weather History Graph

Daily Weather History Graph

Search for Another Location

Airport or City:

Trip Planner

Search our weather history database for the weather conditions in past years. The results will help you decide how hot, cold, wet, or windy it might be!

Date:

Astronomy

Nov. 27, 2012 Rise Set
Actual Time 6:32 AM CST 4:38 PM CST
Civil Twilight 6:04 AM CST 5:05 PM CST
Nautical Twilight 5:34 AM CST 5:36 PM CST
Astronomical Twilight 5:03 AM CST 6:06 PM CST
Moon 4:08 PM CST (11/27) 5:37 AM CST (11/27)
Length of Visible Light 11h 00m
Length of Day
10h 05m
Waxing Gibbous, 99% of the Moon is Illuminated
Nov 27
Waxing Gibbous
Nov 28
Full
Dec 6
Last Quarter
Dec 13
New
Dec 19
First Quarter

Hourly Weather History & Observations

Time (CST) Temp. Windchill Dew Point Humidity Pressure Visibility Wind Dir Wind Speed Gust Speed Precip Events Conditions
12:15 AM 56.7 °F - 50.2 °F 79% 30.11 in 10.0 mi SSW 9.2 mph - N/A   Mostly Cloudy
12:35 AM 56.8 °F - 50.5 °F 79% 30.11 in 10.0 mi SSW 6.9 mph - N/A   Overcast
1:15 AM 57.0 °F - 51.1 °F 81% 30.10 in 10.0 mi SSW 8.1 mph - N/A   Overcast
1:55 AM 56.8 °F - 51.8 °F 83% 30.10 in 10.0 mi SSW 6.9 mph - N/A   Overcast
2:15 AM 56.8 °F - 52.0 °F 84% 30.11 in 10.0 mi NW 4.6 mph - N/A   Overcast
2:35 AM 56.3 °F - 52.0 °F 85% 30.11 in 10.0 mi Calm Calm - N/A Rain Light Rain
2:55 AM 54.7 °F - 52.5 °F 92% 30.12 in 7.0 mi NW 3.5 mph - 0.02 in Rain Light Rain
3:15 AM 54.0 °F - 52.9 °F 96% 30.12 in 3.0 mi Calm Calm - 0.02 in Rain Light Rain
3:35 AM 53.6 °F - 52.9 °F 97% 30.12 in 2.5 mi NW 4.6 mph - 0.02 in   Drizzle
3:55 AM 53.2 °F - 52.7 °F 98% 30.11 in 2.0 mi NW 6.9 mph - 0.02 in Rain Light Rain
4:15 AM 52.9 °F - 52.5 °F 99% 30.12 in 1.8 mi NNW 3.5 mph - 0.01 in   Overcast
4:35 AM 52.3 °F - 52.0 °F 99% 30.13 in 2.0 mi NNW 10.4 mph - 0.01 in   Overcast
4:55 AM 51.4 °F - 50.9 °F 98% 30.14 in 2.0 mi North 9.2 mph 16.1 mph 0.01 in   Overcast
5:15 AM 50.7 °F - 50.0 °F 97% 30.15 in 3.0 mi North 8.1 mph - N/A   Overcast
5:35 AM 49.6 °F - 49.1 °F 98% 30.14 in 3.0 mi North 5.8 mph - N/A Rain Light Rain
5:55 AM 48.7 °F - 48.4 °F 99% 30.14 in 5.0 mi North 5.8 mph - N/A   Overcast
6:15 AM 48.4 °F - 47.8 °F 98% 30.15 in 5.0 mi North 9.2 mph 17.3 mph N/A   Overcast
6:35 AM 46.8 °F - 46.2 °F 98% 30.17 in 5.0 mi North 5.8 mph - N/A   Light Drizzle
6:55 AM 45.9 °F 42.9 °F 45.3 °F 98% 30.18 in 7.0 mi NNW 5.8 mph - N/A   Overcast
7:15 AM 45.3 °F 41.1 °F 44.6 °F 97% 30.18 in 5.0 mi North 8.1 mph - N/A Rain Light Rain
7:35 AM 44.4 °F 39.5 °F 43.7 °F 97% 30.19 in 7.0 mi North 9.2 mph - N/A   Overcast
7:55 AM 43.9 °F 39.9 °F 43.3 °F 98% 30.19 in 5.0 mi North 6.9 mph - 0.01 in   Overcast
8:15 AM 43.7 °F 39.1 °F 42.4 °F 95% 30.21 in 10.0 mi North 8.1 mph 17.3 mph N/A   Overcast
8:35 AM 43.3 °F 38.1 °F 41.9 °F 95% 30.22 in 10.0 mi North 9.2 mph - N/A   Overcast
8:55 AM 43.2 °F 36.6 °F 41.7 °F 95% 30.23 in 10.0 mi North 12.7 mph 19.6 mph N/A   Overcast
9:35 AM 43.0 °F 37.2 °F 41.5 °F 95% 30.24 in 5.0 mi North 10.4 mph 16.1 mph N/A   Overcast
9:55 AM 43.3 °F 39.2 °F 41.5 °F 93% 30.25 in 5.0 mi NNW 6.9 mph - N/A   Overcast
10:15 AM 43.3 °F 38.6 °F 41.5 °F 93% 30.24 in 4.0 mi North 8.1 mph 16.1 mph N/A   Overcast
10:35 AM 43.7 °F 39.1 °F 41.7 °F 93% 30.24 in 4.0 mi North 8.1 mph - N/A   Overcast
10:55 AM 43.7 °F 38.1 °F 41.5 °F 92% 30.23 in 4.0 mi North 10.4 mph 17.3 mph N/A   Overcast
11:15 AM 43.7 °F 37.7 °F 41.4 °F 91% 30.23 in 4.0 mi North 11.5 mph 17.3 mph N/A   Overcast
11:35 AM 43.3 °F 37.7 °F 41.0 °F 91% 30.22 in 4.0 mi North 10.4 mph 18.4 mph N/A   Overcast
11:55 AM 43.0 °F 37.2 °F 40.8 °F 92% 30.21 in 4.0 mi North 10.4 mph 18.4 mph N/A   Overcast
12:15 PM 42.8 °F 37.0 °F 40.3 °F 91% 30.22 in 5.0 mi North 10.4 mph 19.6 mph N/A   Overcast
12:35 PM 43.0 °F 37.2 °F 40.3 °F 90% 30.22 in 4.0 mi North 10.4 mph - N/A   Overcast
1:15 PM 42.6 °F 37.8 °F 39.6 °F 89% 30.21 in 7.0 mi North 8.1 mph 17.3 mph N/A   Overcast
1:35 PM 42.8 °F 38.0 °F 39.6 °F 88% 30.22 in 7.0 mi NNW 8.1 mph - N/A   Overcast
1:55 PM 43.0 °F 38.2 °F 39.6 °F 88% 30.22 in 7.0 mi North 8.1 mph - N/A   Overcast
2:15 PM 43.2 °F 39.0 °F 39.6 °F 87% 30.23 in 7.0 mi North 6.9 mph - N/A   Overcast
2:35 PM 43.3 °F 38.6 °F 39.4 °F 86% 30.23 in 7.0 mi North 8.1 mph - N/A   Overcast
2:55 PM 43.3 °F 39.2 °F 39.4 °F 86% 30.24 in 7.0 mi North 6.9 mph - N/A   Overcast
3:15 PM 43.0 °F 39.5 °F 39.2 °F 86% 30.25 in 7.0 mi North 5.8 mph - N/A   Overcast
3:35 PM 42.8 °F 38.6 °F 38.7 °F 85% 30.25 in 7.0 mi North 6.9 mph - N/A   Overcast
4:15 PM 42.3 °F 37.9 °F 38.3 °F 86% 30.26 in 7.0 mi North 6.9 mph - N/A   Overcast
4:35 PM 42.1 °F 37.7 °F 37.9 °F 85% 30.26 in 10.0 mi North 6.9 mph - N/A   Overcast
4:55 PM 41.7 °F 36.1 °F 37.6 °F 85% 30.27 in 10.0 mi North 9.2 mph - N/A   Overcast
5:15 PM 41.5 °F 36.4 °F 37.6 °F 86% 30.28 in 10.0 mi North 8.1 mph - N/A   Overcast
5:55 PM 41.0 °F 35.2 °F 36.9 °F 85% 30.29 in 10.0 mi North 9.2 mph - N/A   Overcast
6:35 PM 40.5 °F 35.1 °F 36.0 °F 84% 30.30 in 10.0 mi North 8.1 mph - N/A   Overcast
6:55 PM 40.3 °F 36.3 °F 35.8 °F 84% 30.31 in 10.0 mi North 5.8 mph - N/A   Overcast
7:15 PM 40.1 °F 34.7 °F 35.6 °F 84% 30.31 in 10.0 mi North 8.1 mph - N/A   Overcast
7:35 PM 40.1 °F 35.3 °F 35.2 °F 83% 30.32 in 10.0 mi North 6.9 mph - N/A   Overcast
7:55 PM 39.6 °F 34.0 °F 34.9 °F 83% 30.32 in 10.0 mi North 8.1 mph - N/A   Overcast
8:15 PM 39.4 °F 33.2 °F 34.7 °F 83% 30.31 in 10.0 mi NNE 9.2 mph - N/A   Overcast
8:35 PM 39.4 °F 36.1 °F 34.7 °F 83% 30.31 in 10.0 mi North 4.6 mph - N/A   Overcast
8:55 PM 39.2 °F 35.9 °F 34.7 °F 84% 30.31 in 10.0 mi North 4.6 mph - N/A   Overcast
9:15 PM 39.0 °F 34.0 °F 34.2 °F 83% 30.31 in 10.0 mi North 6.9 mph - N/A   Overcast
9:35 PM 38.7 °F 34.3 °F 34.2 °F 84% 30.31 in 10.0 mi North 5.8 mph - N/A   Overcast
9:55 PM 38.7 °F 32.9 °F 34.0 °F 83% 30.31 in 10.0 mi NE 8.1 mph - N/A   Overcast
10:15 PM 38.5 °F 32.7 °F 33.8 °F 83% 30.31 in 10.0 mi NE 8.1 mph - N/A   Overcast
10:35 PM 38.3 °F 32.5 °F 33.3 °F 82% 30.31 in 10.0 mi North 8.1 mph - N/A   Overcast
10:55 PM 37.6 °F 34.0 °F 32.5 °F 82% 30.32 in 10.0 mi NNE 4.6 mph - N/A   Overcast
11:15 PM 37.4 °F - 32.4 °F 82% 30.33 in 10.0 mi Calm Calm - N/A   Overcast
11:55 PM 36.9 °F 34.3 °F 32.0 °F 83% 30.33 in 10.0 mi North 3.5 mph - N/A   Overcast